DW5721 Weather Reports


time (UTC)temp
C
wind
direction
speed
KPH
gust
KPH
rain 1hr
cm
rain 24hr
cm
rain mn
cm
humidity
%
barometer
mb
20260505150849 13 169 0.0 0.0 0.00 0.00 0.00 53 1008.3
20260505130225 14 95 1.6 6.4 0.00 0.00 0.00 50 1008.4
20260505124141 15 78 1.6 0.0 0.00 0.00 0.00 49 1008.4
20260505123140 15 181 1.6 22.5 0.00 0.00 0.00 49 1008.6
20260505122150 14 55 4.8 22.5 0.00 0.00 0.00 49 1008.6
20260505121212 13 49 1.6 16.1 0.00 0.00 0.00 49 1008.8
20260505120225 14 203 0.0 11.3 0.00 0.00 0.00 50 1008.9
20260505115204 13 183 1.6 19.3 0.00 0.00 0.00 51 1008.9
20260505114131 13 109 0.0 8.0 0.00 0.00 0.00 52 1008.8
20260505113102 13 130 1.6 9.7 0.00 0.00 0.00 49 1009.0
20260505112034 13 130 0.0 0.0 0.00 0.00 0.00 51 1009.1
20260505111015 12 78 0.0 0.0 0.00 0.00 0.00 54 1009.2
20260505102036 11 63 0.0 4.8 0.00 0.00 0.00 57 1009.3
20260505101054 11 96 1.6 17.7 0.00 0.00 0.00 57 1009.4
20260505100025 11 142 1.6 17.7 0.00 0.00 0.00 57 1009.3
20260505095044 11 89 0.0 0.0 0.00 0.00 0.00 59 1009.2
20260505094102 12 190 0.0 0.0 0.00 0.00 0.00 61 1009.1
20260505093059 11 190 0.0 4.8 0.00 0.00 0.00 62 1009.0
20260505092035 11 93 3.2 20.9 0.00 0.00 0.00 62 1009.2
20260505091041 11 71 1.6 6.4 0.00 0.00 0.00 63 1009.2
20260505090014 11 84 4.8 24.1 0.00 0.00 0.00 66 1009.2
20260505084949 11 149 1.6 22.5 0.00 0.00 0.00 67 1009.4
20260505083957 11 76 1.6 20.9 0.00 0.00 0.00 65 1009.0
20260505083019 11 62 4.8 20.9 0.00 0.00 0.00 61 1009.1
20260505082013 11 103 1.6 16.1 0.00 0.00 0.00 59 1009.1
20260505075842 11 136 0.0 8.0 0.00 0.00 0.00 59 1009.2
20260505074818 12 80 0.0 9.7 0.00 0.00 0.00 60 1009.2
20260505073802 11 63 0.0 0.0 0.00 0.00 0.00 60 1009.2
20260505072726 11 103 0.0 0.0 0.00 0.00 0.00 60 1009.3
20260505071732 11 72 0.0 0.0 0.00 0.00 0.00 61 1009.5
20260505065554 11 119 0.0 0.0 0.00 0.00 0.00 61 1009.6
20260505064604 11 215 0.0 0.0 0.00 0.00 0.00 60 1009.6
20260505063531 11 267 0.0 11.3 0.00 0.00 0.00 60 1009.7
20260505062526 11 218 0.0 0.0 0.00 0.00 0.00 61 1009.6
20260505061502 10 257 0.0 1.6 0.00 0.00 0.00 61 1009.6
20260505060445 10 200 0.0 0.0 0.00 0.00 0.00 62 1009.6
20260505055438 10 242 0.0 0.0 0.00 0.00 0.00 63 1009.6
20260505054439 9 71 0.0 0.0 0.00 0.00 0.00 65 1009.6
20260505053443 9 281 0.0 0.0 0.00 0.00 0.00 65 1009.6
20260505052451 8 281 0.0 0.0 0.00 0.00 0.00 65 1009.4
20260505051456 8 281 0.0 0.0 0.00 0.00 0.00 64 1009.5
20260505050420 8 129 0.0 0.0 0.00 0.00 0.00 64 1009.7
20260505041257 8 355 0.0 0.0 0.00 0.00 0.00 61 1010.0
20260505040302 7 29 0.0 0.0 0.00 0.00 0.00 62 1010.1